Content
SEND FEEDBACK

Daily
Averages
Monthly
Summary
Canada

OSKELANEO, QUEBEC


Home > North America > Canada > Quebec
Elevation: 1362 feet     Latitude: 48 01N     Longitude: 075 12W

WEATHER
 
SELECT A DAY
Number of Records: 161,194;   Date Range: 1/1/95 - 9/13/14
 
SHARE

PRINT THIS DATA

[ ← Previous Day ]
WEATHER ALMANAC - FEBRUARY 13, 2013
[ Next Day → ]
[ °C ]   °F
Weather ElementAverageHighLow
Temperature17.3 °F24.8 °F (2:00 pm)10.8 °F (5:00 am)
Dewpoint14.1 °F19 °F (4:00 pm)9 °F (5:00 am)
Humidity86.3 %96 % (9:00 pm)69 % (1:00 pm)
Barometer29.75 in29.80 in (7:00 am)29.71 in (4:00 pm)
Wind Speed3.1 mph5.8 mph (1:00 am)
Weather ElementAverage
Wind DirectionSSW (201 °)

Weather ElementTotal
Precipitation---
Heating Degree Days47.2 (Base 65)
Averaged from 30 records on February 13, 2013
WEATHER CONDITIONS BREAKOUT
WIND DIRECTION BREAKOUT
WEATHER BY HOUR - FEBRUARY 13, 2013
[ °C ]   °F
Local TimeTemperatureDewpointHumidityBarometerVisibilityWind DirectionWind SpeedGust SpeedPrecipitationEventsConditions
1:00 AM15.0 °F12.0 °F84 %29.77 inWest (280°)5.8 mph
1:00 AM15.1 °F12.4 °F89 %29.77 inWest (280°)5.8 mph
2:00 AM14.2 °F11.5 °F89 %29.77 inWest (270°)4.6 mph
3:00 AM11.7 °F9.7 °F92 %29.77 inWest (260°)2.3 mph
4:00 AM12.0 °F10.0 °F87 %29.78 inWest (270°)3.5 mph
4:00 AM11.7 °F9.9 °F92 %29.78 inWest (270°)3.5 mph
5:00 AM10.8 °F9.0 °F92 %29.79 inWest (270°)3.5 mph
6:00 AM11.5 °F9.5 °F92 %29.78 inSW (220°)1.2 mph
7:00 AM12.0 °F10.0 °F87 %29.80 inCalm
7:00 AM11.7 °F9.9 °F92 %29.80 inCalm
8:00 AM12.4 °F10.4 °F92 %29.79 inSSE (150°)2.3 mph
9:00 AM14.4 °F11.1 °F87 %29.79 inSouth (170°)1.2 mph
10:00 AM18.0 °F13.0 °F71 %29.78 inWSW (240°)3.5 mph
10:00 AM18.3 °F12.7 °F79 %29.78 inWSW (240°)3.5 mph
11:00 AM20.5 °F14.4 °F77 %29.77 inWSW (250°)2.3 mph
12:00 PM21.4 °F16.0 °F80 %29.75 inSouth (190°)2.3 mph
1:00 PM24.0 °F18.0 °F69 %29.73 inSouth (180°)3.5 mph
1:00 PM23.5 °F18.0 °F79 %29.73 inSouth (180°)3.5 mph
2:00 PM24.8 °F17.8 °F75 %29.72 inSSW (200°)5.8 mph
4:00 PM24.0 °F19.0 °F74 %29.71 inSSW (200°)3.5 mph
4:00 PM24.1 °F19.0 °F81 %29.71 inSSW (200°)3.5 mph
5:00 PM21.7 °F17.4 °F83 %29.72 inSSW (210°)4.6 mph
6:00 PM20.1 °F17.2 °F89 %29.73 inSouth (180°)2.3 mph
7:00 PM18.1 °F16.3 °F93 %29.73 inSouth (180°)3.5 mph
7:00 PM18.0 °F16.0 °F90 %29.73 inSouth (180°)3.5 mph
8:00 PM18.3 °F16.7 °F93 %29.73 inSouth (180°)3.5 mph
9:00 PM17.1 °F16.0 °F96 %29.72 inSSE (160°)3.5 mph
10:00 PM18.0 °F17.0 °F93 %29.72 inSSE (150°)2.3 mph
10:00 PM18.0 °F16.9 °F96 %29.72 inSSE (150°)2.3 mph
11:00 PM17.8 °F16.7 °F96 %29.72 inESE (120°)1.2 mph
Hourly data recorded from CWPK, located miles away from Oskelaneo, Quebec







STORIES FROM OUR PARTNERS